User: anonymous   Login
Location: Unspecified
(0.0000°N, 0.0000°E)
Time: 15:49:36
(UTC+02:00)
Language:

Cosmos 1898 Rocket - Orbit

View from above orbital plane
View from above orbital plane
View from above satellite
View from above satellite

Ground track
Ground track

The orbit data is extracted from the following two-line orbital elements,

1 18586U 87098B   14295.15879927  .00000329  00000-0  12092-3 0  1565
2 18586 074.0068 279.3969 0021412 208.6449 224.0655 14.36474511408207
Epoch (UTC): 22 October 2014 03:48:40
Eccentricity: 0.0021412
inclination: 74.0068°
perigee height: 755 km
apogee height: 785 km
right ascension of ascending node: 279.3969°
argument of perigee: 208.6449°
revolutions per day: 14.36474511
mean anomaly at epoch: 224.0655°
orbit number at epoch: 40820

The dashed part of the orbit path shows where the satellite is in the earth's shadow,  

DLR